HST 1 20580U 90037B 25187.60773434 .00004724 00000-0 17307-3 0 9999 2 20580 28.4685 273.2622 0001788 318.0974 41.9484 15.25496816735653 ISS (ZARYA) 1 25544U 98067A 25188.39183326 .00007084 00000-0 13010-3 0 9996 2 25544 51.6363 206.9237 0002192 345.2586 106.4404 15.50414693518294 CXO 1 25867U 99040B 25190.59594014 .00000634 00000-0 00000-0 0 9997 2 25867 49.9420 128.7398 8385670 309.7762 0.7190 0.37799042 16035